Wiscasset, ME

1:13 PM EDT on September 24, 2017 (GMT -0400)
Wiscasset

Weather History for KIWI - May, 2014

Change the Weather History Date:

Friday, May 16, 2014

  Actual Average Record
Temperature  
Mean Temperature 58 °F -  
Max Temperature 66 °F 61 °F 77 °F (2013)
Min Temperature 53 °F 39 °F 32 °F (1999)
Degree Days  
Heating Degree Days 6    
Growing Degree Days 8 (Base 50)    
Moisture  
Dew Point 53 °F    
Average Humidity 82    
Maximum Humidity 93    
Minimum Humidity 67    
Precipitation  
Precipitation 0.03 in - - ()
Sea Level Pressure  
Sea Level Pressure 30.19 in    
Wind  
Wind Speed 6 mph (South)    
Max Wind Speed 13 mph    
Max Gust Speed 21 mph    
Visibility 10 miles    
Events Rain    
Averages and records for this station are not official NWS values.
T = Trace of Precipitation, MM = Missing Value Source: NWS Daily Summary

Daily Weather History Graph

Daily Weather History Graph

Search for Another Location

Airport or City:

Trip Planner

Search our weather history database for the weather conditions in past years. The results will help you decide how hot, cold, wet, or windy it might be!

Date:

Astronomy

May. 16, 2014 Rise Set
Actual Time 5:11 AM EDT 7:59 PM EDT
Civil Twilight 4:38 AM EDT 8:32 PM EDT
Nautical Twilight 3:56 AM EDT 9:15 PM EDT
Astronomical Twilight 3:07 AM EDT 10:04 PM EDT
Moon 10:02 PM EDT (5/16) 6:50 AM EDT (5/16)
Length of Visible Light 15h 54m
Length of Day
14h 47m
Waning Gibbous, 95% of the Moon is Illuminated
May 16
Waning Gibbous
May 21
Last Quarter
May 28
New
Jun 5
First Quarter
Jun 13
Full

Hourly Weather History & Observations

Time (EDT) Temp. Dew Point Humidity Pressure Visibility Wind Dir Wind Speed Gust Speed Precip Events Conditions
12:43 AM 54.0 °F 51.1 °F 90% 30.26 in 10.0 mi Variable 4.6 mph - N/A   Overcast
12:53 AM 54.0 °F 51.1 °F 90% 30.26 in 6.0 mi Variable 4.6 mph - N/A   Overcast
1:20 AM 53.1 °F 51.1 °F 93% 30.25 in 9.0 mi ESE 3.5 mph - N/A   Overcast
1:53 AM 54.0 °F 52.0 °F 93% 30.24 in 10.0 mi South 6.9 mph - N/A   Overcast
2:53 AM 55.0 °F 52.0 °F 89% 30.22 in 10.0 mi South 4.6 mph - N/A   Overcast
3:53 AM 55.0 °F 51.1 °F 86% 30.22 in 10.0 mi SSE 3.5 mph - N/A   Overcast
4:53 AM 55.0 °F 52.0 °F 89% 30.21 in 10.0 mi Variable 4.6 mph - N/A   Overcast
5:38 AM 55.0 °F 52.0 °F 89% 30.22 in 10.0 mi South 4.6 mph - N/A   Overcast
5:53 AM 55.0 °F 52.0 °F 89% 30.22 in 10.0 mi Variable 4.6 mph - N/A   Overcast
6:40 AM 55.9 °F 52.0 °F 87% 30.22 in 10.0 mi South 9.2 mph - N/A   Overcast
6:53 AM 55.9 °F 52.0 °F 87% 30.23 in 10.0 mi South 6.9 mph - N/A   Overcast
7:05 AM 55.9 °F 52.0 °F 87% 30.22 in 10.0 mi South 9.2 mph - N/A   Overcast
7:15 AM 55.9 °F 52.0 °F 87% 30.22 in 10.0 mi South 10.4 mph - N/A   Overcast
7:53 AM 57.0 °F 52.0 °F 83% 30.22 in 10.0 mi SSW 8.1 mph - N/A   Overcast
8:53 AM 59.0 °F 53.1 °F 81% 30.22 in 10.0 mi South 12.7 mph 17.3 mph N/A   Overcast
9:53 AM 61.0 °F 53.1 °F 75% 30.21 in 10.0 mi South 11.5 mph 18.4 mph N/A   Overcast
10:19 AM 62.1 °F 54.0 °F 75% 30.21 in 10.0 mi South 11.5 mph 19.6 mph N/A   Overcast
10:33 AM 62.1 °F 54.0 °F 75% 30.21 in 10.0 mi South 10.4 mph 20.7 mph N/A   Overcast
10:53 AM 62.1 °F 53.1 °F 72% 30.22 in 10.0 mi South 11.5 mph 19.6 mph N/A   Overcast
11:53 AM 64.0 °F 53.1 °F 67% 30.21 in 10.0 mi SSW 10.4 mph 18.4 mph N/A   Overcast
12:53 PM 64.9 °F 54.0 °F 68% 30.21 in 10.0 mi SSW 6.9 mph - N/A   Overcast
1:53 PM 64.9 °F 54.0 °F 68% 30.20 in 10.0 mi South 9.2 mph - N/A   Overcast
2:53 PM 64.9 °F 54.0 °F 68% 30.19 in 10.0 mi South 10.4 mph 17.3 mph N/A   Partly Cloudy
4:53 PM 64.0 °F 53.1 °F 67% 30.17 in 10.0 mi Variable 6.9 mph - N/A   Overcast
5:53 PM 62.1 °F 53.1 °F 72% 30.16 in 10.0 mi SE 11.5 mph 17.3 mph N/A   Mostly Cloudy
6:53 PM 60.1 °F 52.0 °F 75% 30.16 in 10.0 mi Variable 4.6 mph - N/A   Overcast
7:11 PM 60.1 °F 52.0 °F 75% 30.15 in 10.0 mi Variable 4.6 mph - N/A   Overcast
7:53 PM 59.0 °F 52.0 °F 78% 30.14 in 10.0 mi SE 8.1 mph - N/A   Overcast
8:53 PM 57.0 °F 53.1 °F 87% 30.15 in 10.0 mi SE 4.6 mph - N/A   Overcast
9:10 PM 57.0 °F 53.1 °F 87% 30.15 in 5.0 mi Variable 4.6 mph - 0.00 in Rain Light Rain
9:17 PM 57.0 °F 53.1 °F 87% 30.15 in 4.0 mi Variable 4.6 mph - 0.00 in Rain Light Rain
9:53 PM 57.0 °F 53.1 °F 87% 30.14 in 10.0 mi Variable 3.5 mph - 0.01 in   Overcast
10:53 PM 55.9 °F 54.0 °F 93% 30.12 in 10.0 mi Variable 4.6 mph - 0.02 in   Overcast
11:00 PM 57.0 °F 54.0 °F 89% 30.12 in 10.0 mi Variable 3.5 mph - N/A   Overcast
11:53 PM 57.0 °F 54.0 °F 89% 30.10 in 10.0 mi Variable 3.5 mph - N/A   Overcast